964  
NZUS93 KARX 291710  
HRRWXR  
 
CURRENT HOURLY OBSERVATIONS ACROSS  
MUCH OF THE UPPER MISSISSIPPI VALLEY  
NATIONAL WEATHER SERVICE LA CROSSE WI  
1200 PM CDT MON MAY 29 2017  
 
   
..SOUTHEAST MINNESOTA
 
 
 
CITY SKY/WX TMP DP RH WIND PRES REMARKS  
ROCHESTER PTSUNNY 61 47 59 W24 29.85R  
ROCHESTER/MAYO CLOUDY 58 46 64 W23G30 29.83S  
WINONA PTSUNNY 61 45 55 W8G16 29.82S  
AUSTIN PTSUNNY 61 46 59 NW18G26 29.86S  
ALBERT LEA PTSUNNY 63 50 63 W9 29.87R  
DODGE CENTER MOSUNNY 59 46 63 W16G26 29.85R  
PRESTON CLOUDY 58 44 60 W17G28 29.86R  
OWATONNA MOSUNNY 61 46 59 W18 29.86R  
FARIBAULT CLOUDY 63 46 55 W18G24 29.85R  

 
   
..ELSEWHERE IN MINNESOTA
 
 
 
CITY SKY/WX TMP DP RH WIND PRES REMARKS  
MINNEAPOLIS LGT RAIN 59 50 72 W15 29.82R  
INTNL FALLS CLOUDY 52 49 89 W12 29.70R FOG  
DULUTH LGT RAIN 56 48 74 W14G26 29.69R  
RED WING LGT RAIN 59 48 67 W14G24 29.81R  
REDWOOD FALLS CLOUDY 59 46 62 NW22G31 29.89S  
MANKATO CLOUDY 60 46 59 NW16G23 29.87S  
WORTHINGTON CLOUDY 58 46 64 W17G25 29.95R  
FAIRMONT CLOUDY 61 45 55 W17 29.90R  

 
   
..SOUTHWEST WISCONSIN
 
 
 
CITY SKY/WX TMP DP RH WIND PRES REMARKS  
LA CROSSE CLOUDY 62 47 57 W16 29.82R  
PRAIRIE DU CHI CLOUDY 65 43 44 W16G26 29.84S  
BOSCOBEL CLOUDY 65 45 48 W21G28 29.84R  
LONE ROCK CLOUDY 66 45 46 W16G32 29.82R  
PLATTEVILLE CLOUDY 67 47 49 W18G36 29.86R  
FORT MC COY CLOUDY 61 48 61 W15 29.81R  
CAMP DOUGLAS MOSUNNY 63 49 60 W20G26 29.79R  
MAUSTON-NEW LI PTSUNNY 62 48 60 W14G20 29.79R  
VIROQUA CLOUDY 61 45 56 N14 29.83R  
WIS DELLS PTSUNNY 60 45 57 W13G23 29.80S  

 
   
..ELSEWHERE IN WISCONSIN
 
 
 
CITY SKY/WX TMP DP RH WIND PRES REMARKS  
MILWAUKEE MOSUNNY 71 43 36 W23G35 29.77R  
MADISON PTSUNNY 65 47 52 W12G24 29.80R  
GREEN BAY MOSUNNY 65 53 65 W18G26 29.70R  
EAU CLAIRE CLOUDY 58 47 66 W12 29.77R  
BLACK RVR FLS FAIR 64 46 52 W16G24 29.79S  
MEDFORD CLOUDY 54 49 85 W9 29.74R  
WAUSAU RAIN 52 50 93 W14 29.73R FOG  
WIS RAPIDS CLOUDY 60 49 66 W12 29.77S  
MARSHFIELD CLOUDY 57 47 69 W17G28 29.75R  
RICE LAKE CLOUDY 56 49 74 W14G20 29.77S  

 
   
..NORTHEAST IOWA
 
 
 
CITY SKY/WX TMP DP RH WIND PRES REMARKS  
WATERLOO PTSUNNY 67 45 45 W14G24 29.88S  
DUBUQUE SUNNY 67 46 47 W26G35 29.87R  
DECORAH PTSUNNY 63 45 51 W10G20 29.85R  
MASON CITY CLOUDY 65 45 48 NW18 29.90S  
CHARLES CITY CLOUDY 64 43 45 W20G29 29.88S  
OELWEIN MOSUNNY 66 46 48 W20G29 29.88S  

 
   
..ELSEWHERE IN IOWA
 
 
 
CITY SKY/WX TMP DP RH WIND PRES REMARKS  
DES MOINES MOSUNNY 72 44 36 W16G29 29.94S  
IOWA CITY SUNNY 72 47 40 W18G26 29.92R  
FORT DODGE PTSUNNY 66 45 45 W13G23 29.94R  
MARSHALLTOWN MOSUNNY 69 45 41 W21G31 29.91R  
CEDAR RAPIDS MOSUNNY 71 48 43 NW23G29 29.90R  

 
   
..NORTHERN ILLINOIS
 
 
 
CITY SKY/WX TMP DP RH WIND PRES REMARKS  
CHICAGO-OHARE MOSUNNY 74 46 36 W22G31 29.82R  
CHICAGO-MIDWAY MOSUNNY 75 46 35 W22G33 29.83R  
MOLINE SUNNY 73 46 38 W15G24 29.89R  
ROCKFORD MOSUNNY 70 47 43 W16G32 29.85R  
PEORIA MOSUNNY 74 48 39 NW12 29.91R  

 
 
NOTE: "FAIR" INDICATES FEW OR NO CLOUDS BELOW 12,000 FEET WITH NO  
SIGNIFICANT WEATHER AND/OR OBSTRUCTIONS TO VISIBILITY. WIND  
SPEEDS ARE IN MILES-PER-HOUR.  
 
 
CLICK HERE TO GO TO PREVIOUS BULLETINS.

The Nexlab WI Page
The Nexlab IA Page
The Nexlab MN Page Main Text Page